Rogers, AR

10:56 PM CDT on April 28, 2017 (GMT -0500)
Rogers Municipal-Carter

Weather History for KROG - October, 2012

Change the Weather History Date:

Tuesday, October 9, 2012

  Actual Average Record
Temperature  
Mean Temperature 52 °F -  
Max Temperature 64 °F 69 °F 89 °F (2007)
Min Temperature 42 °F 48 °F 26 °F (2000)
Degree Days  
Heating Degree Days 12    
Growing Degree Days 2 (Base 50)    
Moisture  
Dew Point 48 °F    
Average Humidity 79    
Maximum Humidity 97    
Minimum Humidity 55    
Precipitation  
Precipitation 0.00 in - - ()
Sea Level Pressure  
Sea Level Pressure 30.02 in    
Wind  
Wind Speed 8 mph (SSW)    
Max Wind Speed 16 mph    
Max Gust Speed 21 mph    
Visibility 10 miles    
Events      
Averages and records for this station are not official NWS values.
T = Trace of Precipitation, MM = Missing Value Source: NWS Daily Summary

Daily Weather History Graph

Daily Weather History Graph

Search for Another Location

Airport or City:

Trip Planner

Search our weather history database for the weather conditions in past years. The results will help you decide how hot, cold, wet, or windy it might be!

Date:

Astronomy

Oct. 09, 2012 Rise Set
Actual Time 7:18 AM CDT 6:47 PM CDT
Civil Twilight 6:52 AM CDT 7:13 PM CDT
Nautical Twilight 6:23 AM CDT 7:43 PM CDT
Astronomical Twilight 5:53 AM CDT 8:13 PM CDT
Moon 1:06 AM CDT (10/9) 3:06 PM CDT (10/9)
Length of Visible Light 12h 20m
Length of Day
11h 29m
Last Quarter, 36% of the Moon is Illuminated
Oct 9
Last Quarter
Oct 15
New
Oct 21
First Quarter
Oct 29
Full
Nov 6
Last Quarter

Hourly Weather History & Observations

Time (CDT) Temp. Windchill Dew Point Humidity Pressure Visibility Wind Dir Wind Speed Gust Speed Precip Events Conditions
12:57 AM 44.1 °F 41.5 °F 39.0 °F 82% 30.08 in 10.0 mi South 4.6 mph - N/A   Clear
2:57 AM 42.1 °F 40.2 °F 39.0 °F 89% 30.07 in 10.0 mi SSE 3.5 mph - N/A   Clear
4:57 AM 42.1 °F 37.1 °F 39.0 °F 89% 30.04 in 10.0 mi SE 8.1 mph - N/A   Clear
5:57 AM 43.0 °F 37.7 °F 39.9 °F 89% 30.04 in 10.0 mi SE 9.2 mph - N/A   Clear
6:57 AM 43.0 °F 36.8 °F 39.9 °F 89% 30.04 in 10.0 mi SE 11.5 mph - N/A   Clear
7:57 AM 44.1 °F 38.6 °F 39.9 °F 85% 30.04 in 10.0 mi SSE 10.4 mph - N/A   Clear
8:57 AM 48.0 °F - 42.1 °F 80% 30.04 in 10.0 mi SE 10.4 mph - N/A   Clear
9:57 AM 53.1 °F - 43.0 °F 69% 30.03 in 10.0 mi SSE 11.5 mph 18.4 mph N/A   Clear
10:57 AM 57.9 °F - 44.1 °F 60% 30.02 in 10.0 mi South 13.8 mph 20.7 mph N/A   Clear
11:57 AM 61.0 °F - 46.0 °F 58% 29.99 in 10.0 mi South 16.1 mph - N/A   Mostly Cloudy
12:31 PM 62.6 °F - 46.4 °F 55% 29.98 in 10.0 mi South 15.0 mph - N/A   Overcast
12:57 PM 62.1 °F - 46.9 °F 58% 29.96 in 10.0 mi South 16.1 mph - N/A   Overcast
1:00 PM 62.6 °F - 46.4 °F 55% 29.97 in 10.0 mi SSW 15.0 mph - N/A   Overcast
1:57 PM 62.1 °F - 48.9 °F 62% 29.94 in 10.0 mi South 12.7 mph - N/A   Overcast
2:57 PM 63.0 °F - 50.0 °F 63% 29.93 in 10.0 mi South 16.1 mph 20.7 mph N/A   Overcast
3:57 PM 63.0 °F - 50.0 °F 63% 29.93 in 10.0 mi SSE 5.8 mph - N/A   Overcast
4:57 PM 62.1 °F - 51.1 °F 67% 29.94 in 10.0 mi SW 6.9 mph - N/A   Overcast
5:04 PM 62.6 °F - 51.8 °F 68% 29.95 in 10.0 mi SSW 9.2 mph - N/A   Overcast
5:57 PM 60.1 °F - 52.0 °F 75% 29.96 in 10.0 mi SW 6.9 mph - N/A   Overcast
6:57 PM 59.0 °F - 53.1 °F 81% 29.98 in 10.0 mi WSW 4.6 mph - N/A   Overcast
7:57 PM 57.9 °F - 53.1 °F 84% 30.00 in 10.0 mi WSW 3.5 mph - N/A   Overcast
8:16 PM 57.2 °F - 53.6 °F 88% 30.01 in 10.0 mi WSW 3.5 mph - N/A   Overcast
8:34 PM 57.2 °F - 53.6 °F 88% 30.02 in 10.0 mi NW 4.6 mph - N/A   Overcast
8:57 PM 57.2 °F - 53.6 °F 88% 30.02 in 10.0 mi Calm Calm - N/A   Overcast
8:59 PM 57.0 °F - 53.1 °F 87% 30.02 in 10.0 mi Calm Calm - N/A   Overcast
9:45 PM 55.4 °F - 51.8 °F 88% 30.05 in 10.0 mi NNW 3.5 mph - N/A   Mostly Cloudy
9:57 PM 54.0 °F - 52.0 °F 93% 30.04 in 10.0 mi Calm Calm - N/A   Mostly Cloudy
10:02 PM 55.4 °F - 53.6 °F 94% 30.05 in 10.0 mi Calm Calm - N/A   Overcast
10:57 PM 54.0 °F - 53.1 °F 97% 30.07 in 9.0 mi NNW 3.5 mph - N/A   Overcast
11:32 PM 53.6 °F - 51.8 °F 94% 30.09 in 6.0 mi NW 4.6 mph - N/A   Overcast
11:43 PM 53.6 °F - 51.8 °F 94% 30.10 in 6.0 mi NW 4.6 mph - N/A   Overcast
11:57 PM 54.0 °F - 53.1 °F 97% 30.09 in 5.0 mi NW 3.5 mph - N/A   Overcast